Regional Weather Roundup
Issued by NWS Portland, ME

Current Version | Previous Version | Text Only | Print | Product List | Glossary Off
Versions: 1 2 3 4 5 6 7 8 9 10 11 12 13 14 15 16 17 18 19 20 21 22 23 24 25 26 27 28 29 30 31 32 33 34 35 36 37 38 39 40 41 42 43 44 45 46 47 48 49 50
548 ASUS41 KGYX 261610 RWRGYX WEATHER ROUNDUP FOR MAINE AND NEW HAMPSHIRE NATIONAL WEATHER SERVICE GRAY ME 1200 PM EDT WED APR 26 2017 MEZ002-005-006-010-012-015-018-020-021-024-026-027-029-261700- MAINE CITY SKY/WX TMP DP RH WIND PRES REMARKS PORTLAND LGT RAIN 51 50 96 NE9 29.97F FOG SANFORD LGT RAIN 48 48 100 NE7 29.95F FOG BAR HARBOR CLOUDY 52 52 100 S14 30.06F FOG WISCASSET LGT RAIN 53 53 100 VRB5 30.00F FOG ROCKLAND FOG 49 49 100 E7 30.02F VSB 1/4 FRYEBURG LGT RAIN 49 48 97 N7 29.99F FOG LEWISTONAUBURN LGT RAIN 48 48 100 N8 29.99S FOG AUGUSTA LGT RAIN 49 47 93 NE8 30.00F FOG WATERVILLE LGT RAIN 50 49 96 NE6 30.00F BANGOR CLOUDY 53 52 96 SE6 30.06F FOG GREENVILLE N/A 47 47 100 VRB5 30.00F MILLINOCKET LGT RAIN 48 48 100 NE3 30.07F FOG HOULTON CLOUDY 49 49 100 VRB3 30.08F FOG PRESQUE ISLE LGT RAIN 48 46 93 S9 30.07F FRENCHVILLE LGT RAIN 44 42 93 SE14 30.03F VSB 1/4 CARIBOU LGT RAIN 49 46 90 S10 30.06F $$ NHZ002-005-008-009-011-012-014-261700- NEW HAMPSHIRE CITY SKY/WX TMP DP RH WIND PRES REMARKS PORTSMOUTH LGT RAIN 52 51 98 NE8 29.91S VSB 3/4 ROCHESTER LGT RAIN 50 47 89 N9 29.93F FOG NASHUA LGT RAIN 52 52 100 N7 29.90F FOG MANCHESTER LGT RAIN 52 49 89 N10 29.89F VSB 1 CONCORD LGT RAIN 53 51 93 NE8 29.92F FOG LACONIA LGT RAIN 49 48 97 E14 29.94F FOG PLYMOUTH RAIN 51 49 93 SE3 29.94F BERLIN CLOUDY 54 48 80 CALM 29.96F WHITEFIELD PTSUNNY 58 48 69 NE16 29.92F JAFFREY LGT RAIN 51 51 100 VRB6 29.89F FOG KEENE CLOUDY 55 50 83 NE10 29.88F LEBANON CLOUDY 59 54 83 NE9 29.89F MT WASHINGTON LGT RAIN 43 43 100 SE39G48 N/A VSB 1/16 $$ VTZ005-007-008-261700- VERMONT CITY SKY/WX TMP DP RH WIND PRES REMARKS ST JOHNSBURY N/A 55 52 89 MISG 29.91F MONTPELIER CLOUDY 52 51 97 N3 29.95F BURLINGTON PTSUNNY 63 53 70 CALM 29.87F $$ MAZ007-012-024-CTZ003-RIZ002-NYZ038-NYZ072-261700- SOUTHERN NEW ENGLAND AND NY CITY SKY/WX TMP DP RH WIND PRES REMARKS BOSTON FOG 52 52 100 E12 29.86F VSB 1/4 WORCESTER FOG 49 48 97 NE9 29.85F VSB 1/2 NANTUCKET CLOUDY 55 54 96 SE24G31 29.82S FOG PROVIDENCE CLOUDY 57 57 100 S8 29.83F HARTFORD CLOUDY 54 52 93 N13 29.84F ALBANY CLOUDY 59 54 83 N6 29.85S NEW YORK CITY LGT RAIN 57 53 86 NE14 29.77S $$ ANZ081-ANZ082-ANZ150-NHZ014-MEZ023>029-261700- COASTAL MARINE OBSERVATIONS STATION/POSITION TIME TEMP WIND PRES WAVE AIR SEA DIR/SP/G HT/PER (UTC) (F) (DEG/KT/KT) (MB) (FT/S) MOUNT DESERT ROC 1600 46 1017.0F MATINICUS ROCK 1500 46 130/ 24/ 25 1015.5F ISLE OF SHOALS 1500 51 40/ 8/ 9 1012.9F JEFFREYS LEDGE 1506 44 N/A 7/ 7 CASHES LEDGE BUO 1550 49 43 1013.8F 6/11 GEORGES BANK BUO 1550 54 42 1017.2F 11/10 $$ .............KEY.............. WCI - WIND CHILL TC - TEMPERATURE IN CELSIUS VSB - VISIBILITY IN MILES HX - HEAT INDEX FAIR- INDICATES FEW OR NO CLOUDS BELOW 12,000 FT, WITH NO SIGNIFICANT WEATHER AND/OR OBSTRUCTIONS TO VISIBILITY.

USA.gov is the U.S. government's official web portal to all federal, state and local government web resources and services.